Preston, MN

3:01 PM CDT on April 25, 2017 (GMT -0500)
Preston

Weather History for KFKA - April, 2013

Change the Weather History Date:

Wednesday, April 24, 2013

  Actual Average (KRST) Record (KRST)
Temperature  
Mean Temperature 42 °F -  
Max Temperature 53 °F 59 °F 92 °F (2009)
Min Temperature 30 °F 37 °F 17 °F (1956)
Degree Days  
Heating Degree Days 24    
Moisture  
Dew Point 23 °F    
Average Humidity 54    
Maximum Humidity 77    
Minimum Humidity 23    
Precipitation  
Precipitation 0.03 in - - ()
Sea Level Pressure  
Sea Level Pressure 30.02 in    
Wind  
Wind Speed 10 mph (West)    
Max Wind Speed 22 mph    
Max Gust Speed 39 mph    
Visibility 10 miles    
Events Rain , Thunderstorm    
Averages and records for this station are not official NWS values.
T = Trace of Precipitation, MM = Missing Value Source: NWS Daily Summary

Daily Weather History Graph

Daily Weather History Graph

Search for Another Location

Airport or City:

Trip Planner

Search our weather history database for the weather conditions in past years. The results will help you decide how hot, cold, wet, or windy it might be!

Date:

Astronomy

Apr. 24, 2013 Rise Set
Actual Time 6:11 AM CDT 8:03 PM CDT
Civil Twilight 5:40 AM CDT 8:34 PM CDT
Nautical Twilight 5:02 AM CDT 9:11 PM CDT
Astronomical Twilight 4:22 AM CDT 9:52 PM CDT
Moon 7:06 PM CDT (4/24) 5:17 AM CDT (4/24)
Length of Visible Light 14h 53m
Length of Day
13h 52m
Waxing Gibbous, 98% of the Moon is Illuminated
Apr 24
Waxing Gibbous
Apr 25
Full
May 2
Last Quarter
May 9
New
May 17
First Quarter

Hourly Weather History & Observations

Time (CDT) Temp. Windchill Dew Point Humidity Pressure Visibility Wind Dir Wind Speed Gust Speed Precip Events Conditions
12:14 AM 33.3 °F 25.7 °F 21.2 °F 61% 30.05 in 10.0 mi NW 9.2 mph - N/A   Clear
12:34 AM 32.9 °F 25.3 °F 21.2 °F 62% 30.05 in 10.0 mi NW 9.2 mph - N/A   Clear
12:54 AM 32.9 °F 25.3 °F 21.4 °F 63% 30.05 in 10.0 mi NW 9.2 mph - N/A   Clear
1:14 AM 32.5 °F 24.8 °F 21.2 °F 63% 30.05 in 10.0 mi NW 9.2 mph - N/A   Clear
1:34 AM 32.4 °F 24.0 °F 21.4 °F 64% 30.04 in 10.0 mi NW 10.4 mph - N/A   Clear
1:54 AM 32.0 °F 24.2 °F 21.2 °F 64% 30.04 in 10.0 mi NW 9.2 mph - N/A   Clear
2:14 AM 32.0 °F 24.2 °F 21.2 °F 64% 30.05 in 10.0 mi NW 9.2 mph - N/A   Clear
2:35 AM 32.0 °F 23.6 °F 21.2 °F 64% 30.05 in 10.0 mi NW 10.4 mph - N/A   Clear
2:54 AM 32.0 °F 24.2 °F 21.2 °F 64% 30.05 in 10.0 mi NW 9.2 mph - N/A   Clear
3:14 AM 31.8 °F 23.9 °F 21.2 °F 65% 30.05 in 10.0 mi WNW 9.2 mph - N/A   Clear
3:54 AM 31.6 °F 23.7 °F 21.9 °F 67% 30.04 in 10.0 mi NW 9.2 mph - N/A   Clear
4:14 AM 31.5 °F 24.2 °F 21.9 °F 68% 30.05 in 10.0 mi WNW 8.1 mph - N/A   Clear
4:35 AM 31.1 °F 24.5 °F 21.9 °F 69% 30.04 in 10.0 mi NW 6.9 mph - N/A   Clear
4:54 AM 31.1 °F 23.7 °F 22.1 °F 69% 30.04 in 10.0 mi NW 8.1 mph - N/A   Clear
5:13 AM 30.9 °F 24.3 °F 22.5 °F 71% 30.04 in 10.0 mi NW 6.9 mph - N/A   Clear
5:31 AM 30.7 °F 24.1 °F 22.8 °F 72% 30.05 in 10.0 mi WNW 6.9 mph - N/A   Clear
5:54 AM 30.6 °F 23.8 °F 23.0 °F 74% 30.05 in 10.0 mi WNW 6.9 mph - N/A   Clear
6:14 AM 30.2 °F 22.6 °F 23.4 °F 76% 30.04 in 10.0 mi WNW 8.1 mph - N/A   Clear
6:34 AM 30.2 °F 22.6 °F 23.5 °F 76% 30.05 in 7.0 mi WNW 8.1 mph - N/A   Clear
6:54 AM 30.7 °F 23.3 °F 24.3 °F 77% 30.05 in 7.0 mi WNW 8.1 mph - N/A   Clear
7:14 AM 31.1 °F 23.7 °F 24.3 °F 76% 30.06 in 7.0 mi WNW 8.1 mph - N/A   Clear
7:34 AM 32.0 °F 25.6 °F 24.4 °F 74% 30.06 in 7.0 mi West 6.9 mph - N/A   Clear
7:54 AM 32.9 °F 25.3 °F 24.4 °F 71% 30.06 in 10.0 mi West 9.2 mph - N/A   Clear
8:14 AM 34.0 °F 28.8 °F 23.7 °F 66% 30.06 in 10.0 mi West 5.8 mph - N/A   Clear
8:34 AM 35.4 °F 29.7 °F 23.5 °F 62% 30.06 in 10.0 mi West 6.9 mph - N/A   Clear
8:54 AM 36.5 °F 31.0 °F 23.2 °F 59% 30.06 in 10.0 mi WSW 6.9 mph - N/A   Clear
9:14 AM 37.0 °F 31.6 °F 21.9 °F 54% 30.05 in 10.0 mi WSW 6.9 mph - N/A   Clear
9:34 AM 38.8 °F 34.6 °F 20.8 °F 48% 30.05 in 10.0 mi WSW 5.8 mph - N/A   Clear
9:54 AM 40.1 °F 35.3 °F 21.9 °F 48% 30.05 in 10.0 mi SW 6.9 mph - N/A   Clear
10:14 AM 40.1 °F 34.7 °F 23.2 °F 51% 30.05 in 10.0 mi SSW 8.1 mph - N/A   Clear
10:35 AM 41.0 °F 35.8 °F 23.5 °F 50% 30.05 in 10.0 mi WSW 8.1 mph - N/A   Clear
10:54 AM 43.2 °F 39.7 °F 24.6 °F 48% 30.05 in 10.0 mi SW 5.8 mph - N/A   Clear
11:14 AM 44.1 °F 39.0 °F 25.0 °F 47% 30.05 in 10.0 mi SW 9.2 mph - N/A   Clear
11:34 AM 44.8 °F 41.0 °F 23.9 °F 44% 30.04 in 10.0 mi SW 6.9 mph - N/A   Clear
11:54 AM 46.0 °F 41.9 °F 25.2 °F 44% 30.04 in 10.0 mi West 8.1 mph 17.3 mph N/A   Clear
12:14 PM 46.6 °F - 25.7 °F 44% 30.04 in 10.0 mi West 12.7 mph 17.3 mph N/A   Clear
12:35 PM 47.7 °F - 25.2 °F 41% 30.04 in 10.0 mi West 12.7 mph 16.1 mph N/A   Clear
12:54 PM 48.9 °F - 25.3 °F 40% 30.03 in 10.0 mi West 16.1 mph 21.9 mph N/A   Scattered Clouds
1:14 PM 48.0 °F - 24.3 °F 39% 30.02 in 10.0 mi West 13.8 mph 18.4 mph N/A   Scattered Clouds
1:34 PM 49.8 °F - 21.2 °F 32% 30.02 in 10.0 mi West 16.1 mph 20.7 mph N/A   Scattered Clouds
1:54 PM 50.7 °F - 23.9 °F 35% 30.02 in 10.0 mi WSW 12.7 mph 19.6 mph N/A   Mostly Cloudy
2:14 PM 49.3 °F - 23.9 °F 37% 30.01 in 10.0 mi WSW 15.0 mph - N/A   Mostly Cloudy
2:35 PM 50.4 °F - 21.4 °F 32% 30.01 in 10.0 mi WSW 15.0 mph 35.7 mph N/A   Mostly Cloudy
2:54 PM 50.4 °F - 22.6 °F 34% 30.01 in 10.0 mi West 16.1 mph 20.7 mph N/A   Mostly Cloudy
3:14 PM 50.7 °F - 20.1 °F 30% 30.00 in 10.0 mi SW 18.4 mph 23.0 mph N/A   Mostly Cloudy
3:34 PM 52.9 °F - 21.7 °F 30% 30.00 in 10.0 mi WSW 16.1 mph 25.3 mph N/A   Scattered Clouds
3:54 PM 52.0 °F - 15.8 °F 24% 29.99 in 10.0 mi WSW 15.0 mph 26.5 mph N/A   Scattered Clouds
4:14 PM 53.1 °F - 19.0 °F 26% 29.99 in 10.0 mi WSW 17.3 mph 23.0 mph N/A   Scattered Clouds
4:34 PM 52.3 °F - 17.4 °F 25% 29.98 in 10.0 mi SW 13.8 mph - N/A   Scattered Clouds
4:54 PM 52.7 °F - 17.2 °F 25% 29.98 in 10.0 mi SW 18.4 mph 26.5 mph N/A   Scattered Clouds
5:14 PM 52.7 °F - 17.2 °F 25% 29.97 in 10.0 mi WSW 20.7 mph 25.3 mph N/A   Scattered Clouds
5:34 PM 51.8 °F - 16.0 °F 24% 29.97 in 10.0 mi SW 18.4 mph 26.5 mph N/A   Mostly Cloudy
5:54 PM 51.8 °F - 14.5 °F 23% 29.95 in 10.0 mi WSW 18.4 mph 26.5 mph N/A   Scattered Clouds
6:15 PM 51.8 °F - 16.5 °F 25% 29.94 in 10.0 mi SW 16.1 mph 25.3 mph N/A   Scattered Clouds
6:34 PM 50.4 °F - 16.7 °F 26% 29.94 in 10.0 mi SW 15.0 mph 20.7 mph N/A   Scattered Clouds
6:54 PM 50.2 °F - 16.9 °F 27% 29.93 in 10.0 mi SW 15.0 mph 23.0 mph N/A   Mostly Cloudy
7:15 PM 49.8 °F - 17.2 °F 27% 29.92 in 10.0 mi SSW 13.8 mph - N/A   Mostly Cloudy
7:34 PM 49.3 °F - 19.8 °F 31% 29.92 in 10.0 mi SW 11.5 mph - N/A   Mostly Cloudy
7:54 PM 42.3 °F 33.1 °F 32.0 °F 67% 29.96 in 3.0 mi West 21.9 mph 39.1 mph 0.02 in Rain , Thunderstorm Rain
8:14 PM 40.1 °F 32.7 °F 32.4 °F 74% 29.95 in 10.0 mi West 12.7 mph 20.7 mph 0.01 in   Overcast
8:34 PM 39.7 °F 33.7 °F 32.5 °F 75% 29.95 in 10.0 mi West 9.2 mph - 0.01 in   Overcast
8:54 PM 39.7 °F 34.3 °F 32.9 °F 77% 29.96 in 10.0 mi West 8.1 mph - 0.01 in   Overcast
9:54 PM 41.0 °F 33.9 °F 33.6 °F 75% 29.97 in 10.0 mi WSW 12.7 mph - N/A   Overcast
10:14 PM 40.6 °F 32.0 °F 31.8 °F 71% 29.98 in 10.0 mi West 17.3 mph 20.7 mph N/A   Mostly Cloudy
10:34 PM 39.6 °F 31.0 °F 30.7 °F 71% 29.99 in 10.0 mi West 16.1 mph - N/A   Mostly Cloudy
10:54 PM 39.2 °F 30.2 °F 30.7 °F 72% 30.00 in 10.0 mi West 17.3 mph 21.9 mph N/A   Overcast
11:14 PM 39.2 °F 30.5 °F 31.1 °F 73% 30.00 in 10.0 mi West 16.1 mph - N/A   Overcast
11:34 PM 39.2 °F 29.8 °F 30.7 °F 72% 30.00 in 10.0 mi WNW 18.4 mph 23.0 mph N/A   Overcast
11:54 PM 38.3 °F 31.4 °F 30.2 °F 73% 30.00 in 10.0 mi WNW 10.4 mph 19.6 mph N/A   Scattered Clouds